This is the latest recevied weather packets stored in our database for station/object VK4NB-13. If no packets are shown the sender has not sent any weather packets the latest 10 day(s).
| Time | Temp. | Humidity | Pressure | Rain* | Wind** | Luminosity | Snow |
|---|---|---|---|---|---|---|---|
| 1777504522 | 23.33° C | 86% | 1021.6 hPa | 0 mm | - | - | - |
| 1777503901 | 23.33° C | 84% | 1021.6 hPa | 0 mm | - | - | - |
| 1777503322 | 23.33° C | 83% | 1021.6 hPa | 0 mm | - | - | - |
| 1777497301 | 21.67° C | 85% | 1020.7 hPa | 0 mm | - | - | - |
| 1777495502 | 20.56° C | 88% | 1020.2 hPa | 0 mm | - | - | - |
| 1777495201 | 20.56° C | 88% | 1020.3 hPa | 0 mm | - | - | - |
| 1777493701 | 20.56° C | 86% | 1019.9 hPa | 0 mm | - | - | - |
| 1777491902 | 20.56° C | 85% | 1019.7 hPa | 0 mm | - | - | - |
| 1777490701 | 21.11° C | 84% | 1019.7 hPa | 0 mm | - | - | - |
| 1777490401 | 20.56° C | 84% | 1019.6 hPa | 0 mm | - | - | - |
| 1777486501 | 20.56° C | 84% | 1019 hPa | 0 mm | - | - | - |
| 1777485302 | 21.11° C | 83% | 1019.1 hPa | 0 mm | - | - | - |
| 1777484401 | 21.11° C | 83% | 1019.1 hPa | 0 mm | - | - | - |
| 1777482922 | 21.11° C | 82% | 1019.2 hPa | 0 mm | - | - | - |
| 1777482602 | 21.11° C | 82% | 1019.1 hPa | 0 mm | - | - | - |
| 1777482301 | 21.67° C | 82% | 1019.5 hPa | 0 mm | - | - | - |
| 1777479902 | 21.67° C | 82% | 1019.7 hPa | 0 mm | - | - | - |
| 1777479601 | 21.67° C | 81% | 1019.8 hPa | 0 mm | - | - | - |
| 1777477523 | 21.11° C | 83% | 1019.8 hPa | 0 mm | - | - | - |
| 1777476602 | 20.56° C | 84% | 1020.2 hPa | 0 mm | - | - | - |
| 1777476002 | 21.11° C | 82% | 1020.3 hPa | 0 mm | - | - | - |
| 1777475402 | 21.11° C | 84% | 1020.1 hPa | 0 mm | - | - | - |
| 1777474203 | 21.11° C | 85% | 1020.3 hPa | 0 mm | - | - | - |
| 1777473023 | 21.11° C | 85% | 1020.5 hPa | 0 mm | - | - | - |
| 1777470303 | 21.67° C | 85% | 1021.1 hPa | 0 mm | - | - | - |
* Rain latest hour (hover to see other rain measurements)
** Current wind speed in m/s (hover to see current wind gust speed)